Regional Weather Roundup
Issued by NWS

Home | Current Version | Previous Version | Graphics & Text | Print | Product List | Glossary On
Versions: 1 2 3 4 5 6 7 8 9 10 11 12 13 14 15 16 17 18 19 20 21 22 23 24 25 26 27 28 29 30 31 32 33 34 35 36 37 38 39 40 41 42 43 44 45 46 47 48 49 50
000
ASUS43 KLOT 152058
RWRIL

ILLINOIS REGIONAL WEATHER ROUNDUP
NATIONAL WEATHER SERVICE CHICAGO/ROMEOVILLE IL
400 PM CDT MON SEP 15 2014

NOTE: "FAIR" INDICATES FEW OR NO CLOUDS BELOW 12,000 FEET WITH NO
SIGNIFICANT WEATHER AND/OR OBSTRUCTIONS TO VISIBILITY.

* THESE STATIONS ARE NOT UNDER NWS QUALITY CONTROL. THEY ALSO MAY NOT
  REPORT WEATHER SUCH AS PRECIPITATION OR FOG.

ILZ001-002-007-009-015-016-024-152200-
NORTHWEST ILLINOIS

CITY           SKY/WX    TMP DP  RH WIND       PRES   REMARKS
MOLINE         CLOUDY    60  52  74 N15G25    30.09R
$$

ILZ003-004-008-010-011-017-018-152200-
NORTH CENTRAL ILLINOIS

CITY           SKY/WX    TMP DP  RH WIND       PRES   REMARKS
ROCKFORD       NOT AVBL
$$

ILZ005-006-012>014-019>023-152200-
NORTHEAST ILLINOIS

CITY           SKY/WX    TMP DP  RH WIND       PRES   REMARKS
CHICAGO-OHARE  LGT RAIN  60  51  72 NW9       30.09R
CHICAGO-MIDWAY CLOUDY    59  53  80 W6        30.09S
AURORA         CLOUDY    57  52  83 N3        30.10R
WAUKEGAN       CLOUDY    60  51  72 NW3       30.09R
DUPAGE AIRPORT CLOUDY    57  53  86 N7        30.09R FOG
WHEELING       CLOUDY    60  51  72 W6        30.10S
NORTHERLY ISL    N/A     59  49  69 W7          N/A
$$

LMZ740>746-152200-
SOUTHERN LAKE MICHIGAN

STATION/POSITION SKY/WX   TEMP    WIND        PRES    VSBY  WAVE
                          AIR SEA DIR/SP/G                  HT/PER
                          (F)     (DEG/KT/KT) (MB)    (MI)  (FT/S)
SOUTHERN BUOY              61 64  290/  4/  6 1018.8F         1/ 3
WAUKEGAN HARBOR            61     280/  7/  9   N/A
HARRISON CRIB              59     250/ 10/ 12   N/A
BURNHAM HARBOR             59     280/  5/ 11   N/A
CALUMET HARBOR             58     210/  4/  7 1017.3F
MICHIGAN CITY              57     180/  7/  9   N/A
MICHIGAN CITY 6N           58 64  220/ 10/ 14   N/A           2/ 2
ST. JOSEPH                 60 66  220/ 12/ 16   N/A           2/ 4
$$

ILZ025>027-034>036-040-047-049-050-058-095>099-152200-
WEST-CENTRAL ILLINOIS

CITY           SKY/WX    TMP DP  RH WIND       PRES   REMARKS
$$

ILZ028>032-037-038-041>044-048-051>054-059>061-152200-
CENTRAL ILLINOIS

CITY           SKY/WX    TMP DP  RH WIND       PRES   REMARKS
PEORIA         LGT RAIN  59  56  89 NW3       30.07F FOG
SPRINGFIELD    LGT RAIN  60  59  96 S3        30.07R FOG
TAYLORVILLE    NOT AVBL
$$

ILZ033-039-045-046-055>057-062-063-152200-
EAST-CENTRAL ILLINOIS

CITY           SKY/WX    TMP DP  RH WIND       PRES   REMARKS
CHAMPAIGN      TSTM      57  57 100 S6        30.07R FOG
MATTOON        LGT RAIN  57  57 100 S8        30.05R FOG
$$

ILZ079-100>102-152200-
SOUTHWEST ILLINOIS

CITY           SKY/WX    TMP DP  RH WIND       PRES   REMARKS
ALTON          CLOUDY    70  64  83 CALM      30.06S FOG
$$

ILZ064>066-069>071-074>076-080>082-084>086-088>090-092>094-152200-
SOUTH-CENTRAL ILLINOIS

CITY           SKY/WX    TMP DP  RH WIND       PRES   REMARKS
CARBONDALE     PTSUNNY   76  63  64 S9        30.05F
MARION         PTSUNNY   77  63  61 S12       30.07F
$$

ILZ067-068-072-073-078-083-087-091-152200-
SOUTHEAST ILLINOIS

CITY           SKY/WX    TMP DP  RH WIND       PRES   REMARKS
LAWRENCEVILLE  CLOUDY    68  56  65 SE17G24   30.06F
$$

ABBREVIATIONS USED IN REMARKS
   TC - TEMPERATURE IN CELSIUS
  WCI - WIND CHILL INDEX
   HX - HEAT INDEX
  VSB - VISIBILITY
$$



USA.gov is the U.S. government's official web portal to all federal, state and local government web resources and services.